Location: Unspecified
(0.0000°N, 0.0000°E)
Time: 23:36:23
(UTC+02:00)

Ariane H10+ - Visible Passes

Search period start: 23 April 2017 00:00
Search period end: 03 May 2017 00:00
Orbit: 295 x 31336 km, 6.8° (Epoch: 22 April)

Date Brightness Start Highest point End Pass type
(mag) Time Alt. Az. Time Alt. Az. Time Alt. Az.
23 Apr 7.2 03:04:13 10° W 04:40:37 32° W 11:09:39 10° ENE visible
23 Apr 7.6 20:38:11 10° WSW 20:51:45 75° S 05:03:23 10° E visible
25 Apr 9.1 00:18:57 10° W 02:13:26 71° W 08:45:21 10° E visible
25 Apr 7.2 18:14:02 10° WSW 00:42:44 27° E 02:13:10 10° E visible
26 Apr 10.4 05:10:02 10° W 05:49:41 12° W 06:41:50 10° W visible
26 Apr 8.7 21:49:06 10° W 22:16:10 80° S 06:17:52 10° E visible
28 Apr 8.3 01:36:26 10° W 03:25:14 49° W 09:55:20 10° E visible
28 Apr 6.7 19:23:26 10° WSW 19:31:48 70° S 03:41:18 10° E visible
29 Apr 8.9 23:00:29 10° W 01:32:04 88° SSW 07:29:19 10° E visible
30 Apr 10.7 23:09:54 10° E 23:28:21 10° E 23:44:59 10° E visible
01 May 7.1 03:02:33 10° W 04:35:04 29° W 11:04:09 10° E visible
01 May 7.7 20:32:33 10° WSW 20:47:21 76° S 04:58:14 10° E visible
